Regional Weather Roundup
Issued by NWS

Home | Current Version | Previous Version | Text Only | Print | Product List | Glossary On
Versions: 1 2 3 4 5 6 7 8 9 10 11 12 13 14 15 16 17 18 19 20 21 22 23 24 25 26 27 28 29 30 31 32 33 34 35 36 37 38 39 40 41 42 43 44 45 46 47 48 49 50
000
ASUS45 KREV 011410
RWRNV
NEVADA REGIONAL WEATHER ROUNDUP
NATIONAL WEATHER SERVICE RENO NV
700 AM PDT SUN MAY 01 2016

NOTE: "FAIR" INDICATES FEW OR NO CLOUDS BELOW 12,000 FEET WITH NO
SIGNIFICANT WEATHER AND/OR OBSTRUCTIONS TO VISIBILITY.

NVZ001-003-004-011500-
WESTERN NEVADA

CITY           SKY/WX    TMP DP  RH WIND       PRES   REMARKS
RENO           MOSUNNY   41  32  70 CALM      30.05R
CARSON CITY    FAIR      36  32  87 CALM      30.05R
MINDEN         FAIR      30  30 100 E5        30.06R
SLIDE MTN        N/A     28  27  93 E26         N/A
PYRAMID LAKE     N/A     50 N/A N/A N9          N/A
FALLON         SUNNY     41  31  67 CALM      30.03R
LOVELOCK       SUNNY     47  33  58 NE9       30.05R
HAWTHORNE      SUNNY     46  37  71 CALM      30.04R
$$

NVZ002-CAZ072-073-011500-
NORTHERN AND CENTRAL SIERRA

CITY           SKY/WX    TMP DP  RH WIND       PRES   REMARKS
S. LAKE TAHOE  SUNNY     31  28  89 CALM      30.04R
TRUCKEE        MOSUNNY   27  25  93 CALM      30.06R
SQUAW VLY 8000   N/A     34  30  86 E6          N/A
SUSANVILLE     CLEAR     39  32  75 CALM      30.06R
BLUE CANYON    CLEAR     46  28  49 NE8G18    29.97R
MAMMOTH LAKES  FAIR      32  29  88 W7        30.07R
BRIDGEPORT     FAIR      29  25  85 CALM      30.04R
$$

NVZ030-031-036-011500-
NORTHERN NEVADA

CITY           SKY/WX    TMP DP  RH WIND       PRES   REMARKS
ELKO           PTSUNNY   45  36  70 NE10      30.06R
WINNEMUCCA     PTSUNNY   44  33  65 N13       30.07R
WENDOVER       MOSUNNY   46  30  53 N21       30.09R
$$

NVZ035-037-011500-
CENTRAL NEVADA

CITY           SKY/WX    TMP DP  RH WIND       PRES   REMARKS
ELY            CLOUDY    38  31  76 N10       30.04R
EUREKA           N/A     40  36  86 NE3       30.06R
$$

NVZ013-014-011500-
SOUTH CENTRAL NEVADA

CITY           SKY/WX    TMP DP  RH WIND       PRES   REMARKS
TONOPAH        SUNNY     41  32  70 N14       30.02R
$$

NVZ017-020-022-011500-
SOUTHERN NEVADA

CITY           SKY/WX    TMP DP  RH WIND       PRES   REMARKS
LAS VEGAS      MOSUNNY   56  47  71 S3        29.85R
N. LAS VEGAS   PTSUNNY   60  42  51 N10       29.87R
NELLIS AFB     MOSUNNY   58  45  62 NE3       29.87R
HENDERSON      MOSUNNY   53  47  79 S6        29.90R
MERCURY        SUNNY     53  37  54 NE16      29.91R
$$



USA.gov is the U.S. government's official web portal to all federal, state and local government web resources and services.